Location: Newark
(45.5000°N, 11.4167°E)
Time: 09:39:03
(UTC+00:00)

Vanguard 2 - Pass Details

Date: 22 August 2019
Orbit: 554 x 2937 km, 32.9° (Epoch: 15 September)

Event Time Altitude Azimuth Distance (km) Brightness Sun altitude
Rises 15:44:02 0° 262° (W) 4,372 12.8 24.6°
Reaches altitude 10° 15:46:49 10° 254° (WSW) 3,686 12.9 24.1°
Maximum altitude 15:55:50 38° 191° (S) 2,875 10.9 22.6°
Drops below altitude 10° 16:09:12 10° 132° (SE) 5,426 11.5 20.2°
Sets 16:14:21 0° 125° (SE) 6,644 11.8 19.3°
